This demonstration page uses our WeatherBlox Daily Observations layout. Learn more.

Left ArrowRight Arrow

Hourly Observations for August 26, 2016

Temp ( °F °C ) Dew Point ( °F °C ) Humidity (%) Winds ( mph kmh ) Pressure ( in mb ) Visibility ( mi km ) Precip ( " mm )
12:14 am 00:14 Partly Cloudy 72 22 70 21 94 94 Calm 30.06 1018 10 16.0934 N/A
12:34 am 00:34 Partly Cloudy 72 22 72 22 100 100 Calm 30.06 1018 10 16.0934 N/A
12:54 am 00:54 Mostly Cloudy 72 22 72 22 100 100 Calm 30.06 1018 7 11.26538 N/A
1:14 am 01:14 Mostly Cloudy 72 22 72 22 100 100 Calm 30.06 1018 7 11.26538 N/A
1:34 am 01:34 Cloudy 72 22 72 22 100 100 SSW 3 6 30.06 1018 7 11.26538 N/A
1:54 am 01:54 Mostly Cloudy 72 22 72 22 100 100 SW 3 6 30.09 1019 10 16.0934 N/A
2:14 am 02:14 Partly Cloudy 72 22 72 22 100 100 Calm 30.06 1018 7 11.26538 N/A
2:34 am 02:34 Partly Cloudy 72 22 70 21 94 94 Calm 30.06 1018 7 11.26538 N/A
2:54 am 02:54 Mostly Cloudy 72 22 70 21 94 94 Calm 30.09 1019 7 11.26538 N/A
3:14 am 03:14 Mostly Cloudy 72 22 72 22 100 100 Calm 30.09 1019 7 11.26538 N/A
3:34 am 03:34 Mostly Cloudy 72 22 72 22 100 100 Calm 30.09 1019 5 8.0467 N/A
3:54 am 03:54 Mostly Cloudy 72 22 72 22 100 100 Calm 30.09 1019 5 8.0467 N/A
4:14 am 04:14 Partly Cloudy 72 22 70 21 94 94 Calm 30.06 1018 5 8.0467 N/A
4:34 am 04:34 Partly Cloudy 70 21 70 21 100 100 Calm 30.09 1019 5 8.0467 N/A
4:55 am 04:55 Mostly Cloudy 72 22 70 21 94 94 Calm 30.09 1019 7 11.26538 N/A
5:14 am 05:14 Partly Cloudy 72 22 70 21 94 94 Calm 30.06 1018 5 8.0467 N/A
5:34 am 05:34 Clear 70 21 70 21 100 100 Calm 30.09 1019 2.5 4.02335 N/A
5:55 am 05:55 Clear 70 21 70 21 100 100 NNE 3 6 30.09 1019 3 4.82802 N/A
6:14 am 06:14 Clear 68 20 68 20 100 100 Calm 30.12 1020 2.5 4.02335 N/A
6:34 am 06:34 Partly Cloudy 70 21 70 21 100 100 Calm 30.12 1020 4 6.43736 N/A
6:55 am 06:55 Mostly Cloudy 70 21 68 20 94 94 Calm 30.12 1020 3 4.82802 N/A
7:14 am 07:14 Cloudy 70 21 70 21 100 100 Calm 30.12 1020 5 8.0467 N/A
7:34 am 07:34 Mostly Cloudy 70 21 70 21 100 100 Calm 30.12 1020 3 4.82802 N/A
7:54 am 07:54 Partly Cloudy 72 22 70 21 94 94 Calm 30.15 1021 4 6.43736 N/A
8:14 am 08:14 Partly Cloudy 73 23 72 22 94 94 SE 3 6 30.12 1020 7 11.26538 N/A
8:34 am 08:34 Mostly Cloudy 75 24 73 23 94 94 E 3 6 30.12 1020 10 16.0934 N/A
8:54 am 08:54 Cloudy 75 24 73 23 94 94 W 13 20 30.15 1021 1.25 2.011675 N/A
9:14 am 09:14 Cloudy 72 22 72 22 100 100 NNE 7 11 30.15 1021 0.5 0.80467 N/A
9:34 am 09:34 Partly Cloudy 72 22 70 21 94 94 SE 7 11 30.15 1021 10 16.0934 N/A
9:54 am 09:54 Sunny 70 21 68 20 94 94 SE 5 7 30.15 1021 10 16.0934 N/A
10:14 am 10:14 Sunny 73 23 70 21 89 89 SSE 3 6 30.12 1020 10 16.0934 N/A
10:34 am 10:34 Sunny 75 24 70 21 83 83 Calm 30.12 1020 10 16.0934 N/A
10:54 am 10:54 Sunny 77 25 70 21 79 79 Calm 30.12 1020 10 16.0934 N/A
11:14 am 11:14 Sunny 79 26 70 21 74 74 Calm 30.12 1020 10 16.0934 N/A
11:34 am 11:34 Sunny 79 26 72 22 79 79 S 3 6 30.12 1020 10 16.0934 N/A
11:54 am 11:54 Sunny 81 27 73 23 79 79 S 6 9 30.12 1020 10 16.0934 N/A
12:14 pm 12:14 Sunny 81 27 73 23 79 79 S 5 7 30.12 1020 10 16.0934 N/A
12:34 pm 12:34 Sunny 82 28 73 23 74 74 Calm 30.12 1020 10 16.0934 N/A
12:54 pm 12:54 Partly Cloudy 82 28 75 24 79 79 Calm 30.12 1020 10 16.0934 N/A
1:14 pm 13:14 Mostly Cloudy 82 28 73 23 74 74 Calm 30.12 1020 10 16.0934 N/A
1:34 pm 13:34 Partly Cloudy 84 29 75 24 74 74 SSE 5 7 30.12 1020 10 16.0934 N/A
1:54 pm 13:54 Partly Cloudy 84 29 75 24 74 74 SSE 5 7 30.09 1019 10 16.0934 N/A
2:14 pm 14:14 Partly Cloudy 84 29 73 23 70 70 S 5 7 30.09 1019 10 16.0934 N/A
2:34 pm 14:34 Partly Cloudy 86 30 75 24 70 70 Calm 30.09 1019 10 16.0934 N/A
2:54 pm 14:54 Sunny 86 30 73 23 66 66 S 3 6 30.09 1019 10 16.0934 N/A
3:14 pm 15:14 Partly Cloudy 86 30 73 23 66 66 ESE 3 6 30.09 1019 10 16.0934 N/A
3:34 pm 15:34 Partly Cloudy 88 31 72 22 59 59 Calm 30.06 1018 10 16.0934 N/A
3:54 pm 15:54 Sunny 88 31 73 23 62 62 Calm 30.06 1018 10 16.0934 N/A
4:15 pm 16:15 Partly Cloudy 86 30 73 23 66 66 ENE 5 7 30.06 1018 10 16.0934 N/A
4:34 pm 16:34 Partly Cloudy 86 30 73 23 66 66 Calm 30.06 1018 10 16.0934 N/A
4:54 pm 16:54 Partly Cloudy 86 30 73 23 66 66 NE 5 7 30.06 1018 10 16.0934 N/A
5:14 pm 17:14 Mostly Cloudy 84 29 75 24 74 74 Calm 30.06 1018 5 8.0467 N/A
5:34 pm 17:34 Partly Cloudy 81 27 75 24 84 84 S 8 13 30.09 1019 3 4.82802 N/A
5:54 pm 17:54 Mostly Cloudy 77 25 73 23 89 89 SSW 12 19 30.06 1018 5 8.0467 N/A
6:14 pm 18:14 Cloudy 73 23 70 21 89 89 SSW 3 6 30.06 1018 7 11.26538 N/A
6:34 pm 18:34 Mostly Cloudy 73 23 72 22 94 94 NW 12 19 30.09 1019 10 16.0934 N/A
6:54 pm 18:54 Cloudy 72 22 68 20 88 88 WNW 17 28 30.09 1019 10 16.0934 N/A
7:14 pm 19:14 Cloudy 70 21 68 20 94 94 SW 18 30 30.15 1021 2.5 4.02335 N/A
7:34 pm 19:34 Cloudy 68 20 66 19 94 94 SSW 7 11 30.15 1021 0.75 1.207005 N/A
7:55 pm 19:55 Cloudy 68 20 66 19 94 94 SSE 6 9 30.12 1020 7 11.26538 N/A
8:14 pm 20:14 Cloudy 70 21 66 19 88 88 SE 5 7 30.09 1019 7 11.26538 N/A
8:34 pm 20:34 Partly Cloudy 70 21 68 20 94 94 ESE 7 11 30.09 1019 10 16.0934 N/A
8:54 pm 20:54 Clear 70 21 68 20 94 94 NW 6 9 30.12 1020 10 16.0934 N/A
9:14 pm 21:14 Clear 70 21 68 20 94 94 N 6 9 30.12 1020 10 16.0934 N/A
9:34 pm 21:34 Clear 68 20 68 20 100 100 NE 3 6 30.12 1020 10 16.0934 N/A
9:54 pm 21:54 Clear 68 20 68 20 100 100 N 3 6 30.15 1021 10 16.0934 N/A
10:14 pm 22:14 Clear 68 20 68 20 100 100 Calm 30.15 1021 10 16.0934 N/A
10:34 pm 22:34 Clear 68 20 68 20 100 100 Calm 30.15 1021 7 11.26538 N/A
10:54 pm 22:54 Clear 68 20 68 20 100 100 NE 3 6 30.15 1021 7 11.26538 N/A
11:14 pm 23:14 Clear 68 20 68 20 100 100 NNE 3 6 30.15 1021 5 8.0467 N/A
11:34 pm 23:34 Clear 68 20 68 20 100 100 Calm 30.12 1020 5 8.0467 N/A
11:54 pm 23:54 Clear 68 20 68 20 100 100 N 3 6 30.12 1020 5 8.0467 N/A

Powered by AerisWeather